Weather History for Big Rapids, MI

Change the Weather History Date:

Saturday, July 6, 2013

  Actual Average Record
Temperature  
Mean Temperature 71 °F -  
Max Temperature 84 °F 82 °F 100 °F (1988)
Min Temperature 58 °F 53 °F 35 °F (1998)
Cooling Degree Days 6    
Growing Degree Days 21 (Base 50)    
Moisture  
Dew Point 60 °F    
Average Humidity 68    
Maximum Humidity 96    
Minimum Humidity 37    
Precipitation  
Precipitation 0.00 in - - ()
Sea Level Pressure  
Sea Level Pressure 30.05 in    
Wind  
Wind Speed 2 mph (SW)    
Max Wind Speed 9 mph    
Max Gust Speed -    
Visibility 8 miles    
Events      
Averages and records for this station are not official NWS values.
T = Trace of Precipitation, MM = Missing Value Source: NWS Daily Summary

Daily Weather History Graph

Daily Weather History Graph

Search for Another Location

Airport:

Trip Planner

Search our weather history database for the weather conditions in past years. The results will help you decide how hot, cold, wet, or windy it might be!

Date:

Astronomy

Jul. 06, 2013 Rise Set
Actual Time 6:07 AM EDT 9:26 PM EDT
Civil Twilight 5:31 AM EDT 10:01 PM EDT
Nautical Twilight 4:45 AM EDT 10:47 PM EDT
Astronomical Twilight 3:48 AM EDT 11:44 PM EDT
Moon 4:54 AM EDT (7/6) 8:05 PM EDT (7/6)
Length of Visible Light 16h 29m
Length of Day
15h 18m
Waning Crescent, 2% of the Moon is Illuminated
Jul 6
Waning Crescent
Jul 8
New
Jul 15
First Quarter
Jul 22
Full
Jul 29
Last Quarter

Hourly Weather History & Observations

Time (EDT) Temp. Heat Index Dew Point Humidity Pressure Visibility Wind Dir Wind Speed Gust Speed Precip Events Conditions
12:14 AM 63.5 °F - 59.5 °F 87% 30.08 in 7.0 mi Calm Calm - N/A   Clear
12:35 AM 62.8 °F - 60.1 °F 91% 30.08 in 7.0 mi Calm Calm - N/A   Clear
12:55 AM 62.2 °F - 59.9 °F 92% 30.08 in 7.0 mi East 5.8 mph - N/A   Clear
1:14 AM 63.1 °F - 61.3 °F 94% 30.08 in 5.0 mi Calm Calm - N/A   Clear
1:35 AM 61.7 °F - 59.5 °F 93% 30.08 in 7.0 mi Calm Calm - N/A   Clear
1:55 AM 61.5 °F - 59.9 °F 94% 30.07 in 4.0 mi Calm Calm - N/A   Clear
2:14 AM 62.4 °F - 60.1 °F 92% 30.07 in 7.0 mi Calm Calm - N/A   Clear
2:35 AM 61.9 °F - 59.7 °F 93% 30.08 in 7.0 mi Calm Calm - N/A   Clear
2:55 AM 60.8 °F - 59.2 °F 94% 30.08 in 5.0 mi Calm Calm - N/A   Clear
3:14 AM 61.2 °F - 59.2 °F 93% 30.08 in 7.0 mi Calm Calm - N/A   Clear
3:35 AM 61.0 °F - 59.4 °F 94% 30.08 in 4.0 mi Calm Calm - N/A   Clear
3:55 AM 60.8 °F - 59.2 °F 94% 30.08 in 5.0 mi Calm Calm - N/A   Clear
4:15 AM 60.3 °F - 58.6 °F 94% 30.08 in 4.0 mi Calm Calm - N/A   Clear
4:35 AM 60.1 °F - 57.9 °F 93% 30.08 in 7.0 mi Calm Calm - N/A   Clear
4:55 AM 59.9 °F - 58.1 °F 94% 30.08 in 4.0 mi Calm Calm - N/A   Clear
5:15 AM 59.5 °F - 57.6 °F 93% 30.08 in 7.0 mi Calm Calm - N/A   Clear
5:35 AM 59.0 °F - 57.0 °F 93% 30.09 in 4.0 mi Calm Calm - N/A   Clear
5:55 AM 58.6 °F - 57.4 °F 96% 30.09 in 2.0 mi Calm Calm - N/A   Clear
6:15 AM 58.6 °F - 57.4 °F 96% 30.09 in 3.0 mi Calm Calm - N/A   Clear
6:35 AM 59.7 °F - 58.5 °F 96% 30.10 in 3.0 mi Calm Calm - N/A   Clear
6:55 AM 59.9 °F - 58.1 °F 94% 30.10 in 4.0 mi Calm Calm - N/A   Clear
7:15 AM 59.9 °F - 58.6 °F 96% 30.09 in 2.5 mi Calm Calm - N/A   Clear
7:35 AM 61.3 °F - 59.9 °F 95% 30.09 in 3.0 mi Calm Calm - N/A   Clear
7:55 AM 63.0 °F - 61.3 °F 94% 30.09 in 3.0 mi Calm Calm - N/A   Clear
8:15 AM 64.9 °F - 62.8 °F 93% 30.09 in 5.0 mi Calm Calm - N/A   Clear
8:35 AM 67.5 °F - 64.2 °F 89% 30.09 in 5.0 mi Calm Calm - N/A   Clear
8:55 AM 70.0 °F - 65.3 °F 85% 30.09 in 7.0 mi Calm Calm - N/A   Clear
9:15 AM 72.7 °F - 66.0 °F 80% 30.09 in 7.0 mi South 3.5 mph - N/A   Clear
9:35 AM 75.0 °F - 66.2 °F 74% 30.09 in 10.0 mi South 3.5 mph - N/A   Clear
9:55 AM 77.2 °F - 60.4 °F 56% 30.09 in 10.0 mi SW 6.9 mph - N/A   Clear
10:15 AM 77.5 °F - 60.4 °F 55% 30.09 in 10.0 mi WSW 6.9 mph - N/A   Clear
10:35 AM 78.6 °F - 59.7 °F 52% 30.08 in 10.0 mi West 5.8 mph - N/A   Clear
10:55 AM 79.0 °F - 59.2 °F 51% 30.08 in 10.0 mi SW 5.8 mph - N/A   Clear
11:15 AM 79.5 °F - 59.7 °F 51% 30.08 in 10.0 mi West 6.9 mph - N/A   Clear
11:35 AM 80.1 °F 81.0 °F 60.6 °F 51% 30.08 in 10.0 mi West 8.1 mph - N/A   Clear
11:55 AM 80.4 °F 81.2 °F 60.4 °F 50% 30.08 in 10.0 mi SW 8.1 mph - N/A   Mostly Cloudy
12:14 PM 80.6 °F 81.5 °F 61.0 °F 51% 30.09 in 10.0 mi South 8.1 mph - N/A   Mostly Cloudy
12:35 PM 80.6 °F 81.6 °F 61.3 °F 52% 30.08 in 10.0 mi South 3.5 mph - N/A   Scattered Clouds
12:55 PM 80.2 °F 81.0 °F 60.1 °F 50% 30.07 in 10.0 mi WSW 8.1 mph - N/A   Scattered Clouds
1:14 PM 81.5 °F 82.1 °F 60.4 °F 49% 30.07 in 10.0 mi SSW 4.6 mph - N/A   Scattered Clouds
1:35 PM 82.0 °F 82.1 °F 58.6 °F 45% 30.06 in 10.0 mi SSW 8.1 mph - N/A   Scattered Clouds
1:55 PM 83.5 °F 83.1 °F 58.5 °F 42% 30.06 in 10.0 mi Calm Calm - N/A   Scattered Clouds
2:14 PM 83.7 °F 83.1 °F 57.7 °F 41% 30.05 in 10.0 mi South 4.6 mph - N/A   Scattered Clouds
2:35 PM 84.0 °F 83.5 °F 57.7 °F 41% 30.05 in 10.0 mi Calm Calm - N/A   Scattered Clouds
2:55 PM 83.8 °F 82.8 °F 55.9 °F 38% 30.04 in 10.0 mi SW 6.9 mph - N/A   Mostly Cloudy
3:14 PM 84.2 °F 83.7 °F 58.5 °F 41% 30.04 in 10.0 mi SW 9.2 mph - N/A   Mostly Cloudy
3:35 PM 84.2 °F 83.3 °F 56.8 °F 39% 30.04 in 10.0 mi WSW 6.9 mph - N/A   Mostly Cloudy
3:55 PM 84.2 °F 83.5 °F 57.2 °F 40% 30.04 in 10.0 mi WSW 4.6 mph - N/A   Scattered Clouds
4:14 PM 84.9 °F 83.7 °F 56.3 °F 37% 30.03 in 10.0 mi WSW 4.6 mph - N/A   Clear
4:35 PM 84.9 °F 83.9 °F 56.5 °F 38% 30.03 in 10.0 mi SW 5.8 mph - N/A   Clear
4:55 PM 84.6 °F 83.4 °F 55.4 °F 37% 30.02 in 10.0 mi SW 8.1 mph - N/A   Scattered Clouds
5:14 PM 84.4 °F 83.4 °F 55.9 °F 38% 30.02 in 10.0 mi SW 6.9 mph - N/A   Scattered Clouds
5:35 PM 84.4 °F 83.4 °F 56.5 °F 38% 30.02 in 10.0 mi SW 8.1 mph - N/A   Clear
5:55 PM 83.8 °F 83.0 °F 56.7 °F 39% 30.01 in 10.0 mi SW 6.9 mph - N/A   Clear
6:14 PM 83.7 °F 83.3 °F 58.1 °F 42% 30.01 in 10.0 mi WSW 4.6 mph - N/A   Clear
6:35 PM 82.4 °F 82.6 °F 59.7 °F 46% 30.00 in 10.0 mi SW 5.8 mph - N/A   Clear
6:55 PM 80.1 °F 81.1 °F 61.2 °F 52% 30.00 in 10.0 mi SSW 5.8 mph - N/A   Clear
7:15 PM 79.9 °F - 61.5 °F 53% 29.99 in 10.0 mi SSW 4.6 mph - N/A   Clear
7:35 PM 79.7 °F - 62.4 °F 55% 29.99 in 10.0 mi SSW 4.6 mph - N/A   Scattered Clouds
7:55 PM 79.7 °F - 62.8 °F 56% 29.98 in 10.0 mi WSW 8.1 mph - N/A   Mostly Cloudy
8:15 PM 79.2 °F - 61.9 °F 55% 29.98 in 10.0 mi WSW 6.9 mph - N/A   Scattered Clouds
8:35 PM 78.6 °F - 62.6 °F 58% 29.99 in 10.0 mi WSW 5.8 mph - N/A   Clear
8:55 PM 75.9 °F - 62.1 °F 62% 30.00 in 10.0 mi WSW 9.2 mph - N/A   Clear
9:15 PM 75.4 °F - 59.2 °F 57% 30.00 in 10.0 mi WSW 5.8 mph - N/A   Clear
9:34 PM 73.8 °F - 59.2 °F 60% 30.01 in 10.0 mi WSW 4.6 mph - N/A   Clear
9:55 PM 73.9 °F - 59.4 °F 60% 30.01 in 10.0 mi West 5.8 mph - N/A   Clear
10:15 PM 72.3 °F - 60.1 °F 65% 30.01 in 10.0 mi Calm Calm - N/A   Clear
10:34 PM 71.1 °F - 61.5 °F 72% 30.02 in 10.0 mi Calm Calm - N/A   Clear
10:55 PM 70.7 °F - 60.6 °F 70% 30.02 in 10.0 mi Calm Calm - N/A   Clear
11:15 PM 70.3 °F - 60.8 °F 72% 30.02 in 10.0 mi Calm Calm - N/A   Clear
11:35 PM 69.6 °F - 60.8 °F 73% 30.02 in 10.0 mi South 4.6 mph - N/A   Clear
11:55 PM 69.8 °F - 60.8 °F 73% 30.03 in 10.0 mi Calm Calm - N/A   Clear